Location: Unspecified
(20.0000°S, 0.0000°E)
Time: 05:12:01
(UTC+00:00)

KKS-1 - Pass Details

Date: 29 August 2019
Orbit: 638 x 649 km, 98.3° (Epoch: 19 September)

Event Time Altitude Azimuth Distance (km) Brightness Sun altitude
Rises 19:07:16 0° 358° (N) 2,947 ? -18.6°
Reaches altitude 10° 19:09:34 10° 350° (N) 2,043 ? -19.2°
Maximum altitude 19:13:45 40° 280° (W) 956 ? -20.2°
Drops below altitude 10° 19:17:59 10° 210° (SSW) 2,061 ? -21.2°
Sets 19:20:19 0° 203° (SSW) 2,976 ? -21.7°
